Weather History for KJKJ - February, 2014

Change the Weather History Date:

Monday, February 17, 2014

  Actual Average (KFAR) Record (KFAR)
Temperature  
Mean Temperature 26 °F 15 °F  
Max Temperature 33 °F 24 °F 48 °F (2002)
Min Temperature 19 °F 6 °F -30 °F (1979)
Degree Days  
Heating Degree Days 39 50  
Month to date heating degree days 891  
Since 1 July heating degree days 6159  
Cooling Degree Days 0 0  
Month to date cooling degree days 0  
Year to date cooling degree days 0  
Moisture  
Dew Point 23 °F    
Average Humidity 92    
Maximum Humidity 100    
Minimum Humidity 80    
Precipitation  
Precipitation 0.01 in 0.02 in 0.34 in (1904)
Month to date precipitation 0.30  
Year to date precipitation 1.00  
Snow  
Snow 0.00 in 0.20 in 3.40 in (1904)
Month to date snowfall 3.8  
Since 1 July snowfall 34.8  
Snow Depth -    
Sea Level Pressure  
Sea Level Pressure 29.66 in    
Wind  
Wind Speed 13 mph (SSW)    
Max Wind Speed 23 mph    
Max Gust Speed 26 mph    
Visibility 8 miles    
Events Rain , Snow    
T = Trace of Precipitation, MM = Missing Value Source: NWS Daily Summary

Daily Weather History Graph

Daily Weather History Graph

Search for Another Location

Airport or City:

Trip Planner

Search our weather history database for the weather conditions in past years. The results will help you decide how hot, cold, wet, or windy it might be!

Date:

Astronomy

Feb. 17, 2014 Rise Set
Actual Time 7:27 AM CST 5:54 PM CST
Civil Twilight 6:56 AM CST 6:25 PM CST
Nautical Twilight 6:20 AM CST 7:01 PM CST
Astronomical Twilight 5:45 AM CST 7:36 PM CST
Moon 9:04 PM CST (2/17) 8:16 AM CST (2/17)
Length of Visible Light 11h 29m
Length of Day
10h 27m
Waning Gibbous, 93% of the Moon is Illuminated
Feb 17
Waning Gibbous
Feb 22
Last Quarter
Mar 1
New
Mar 8
First Quarter
Mar 16
Full

Hourly Weather History & Observations

Time (CST) Temp. Windchill Dew Point Humidity Pressure Visibility Wind Dir Wind Speed Gust Speed Precip Events Conditions
12:14 AM 19.4 °F 2.5 °F 15.8 °F 86% 29.76 in 10.0 mi SSE 23.0 mph 26.5 mph N/A   Overcast
12:35 AM 19.4 °F 4.1 °F 15.8 °F 86% 29.74 in 10.0 mi SSE 18.4 mph 25.3 mph N/A   Overcast
12:55 AM 21.2 °F 6.8 °F 15.8 °F 80% 29.75 in 10.0 mi SSE 17.3 mph 24.2 mph N/A   Overcast
1:14 AM 21.2 °F 6.0 °F 15.8 °F 80% 29.75 in 10.0 mi SSE 19.6 mph - N/A   Overcast
1:35 AM 21.2 °F 6.4 °F 15.8 °F 80% 29.74 in 10.0 mi SSE 18.4 mph 25.3 mph N/A   Overcast
1:55 AM 21.2 °F 6.8 °F 15.8 °F 80% 29.72 in 10.0 mi SSE 17.3 mph 24.2 mph N/A   Overcast
2:14 AM 21.2 °F 7.3 °F 17.6 °F 86% 29.72 in 10.0 mi SSE 16.1 mph - N/A   Overcast
2:35 AM 21.2 °F 6.8 °F 17.6 °F 86% 29.71 in 10.0 mi South 17.3 mph 20.7 mph N/A   Overcast
2:55 AM 21.2 °F 7.3 °F 17.6 °F 86% 29.71 in 7.0 mi South 16.1 mph 21.9 mph N/A   Overcast
3:14 AM 21.2 °F 6.8 °F 19.4 °F 93% 29.70 in 5.0 mi South 17.3 mph 20.7 mph N/A   Overcast
3:35 AM 21.2 °F 6.0 °F 19.4 °F 93% 29.70 in 5.0 mi SSE 19.6 mph - N/A   Overcast
3:54 AM 21.2 °F 8.9 °F 21.2 °F 100% 29.70 in 4.0 mi SSE 12.7 mph 19.6 mph N/A   Overcast
4:15 AM 21.2 °F 8.3 °F 21.2 °F 100% 29.69 in 3.0 mi SSE 13.8 mph - N/A   Overcast
4:35 AM 21.2 °F 8.3 °F 21.2 °F 100% 29.69 in 2.5 mi SSE 13.8 mph 18.4 mph N/A   Overcast
4:54 AM 21.2 °F 9.5 °F 21.2 °F 100% 29.69 in 2.0 mi South 11.5 mph 18.4 mph N/A Snow Light Snow
5:15 AM 21.2 °F 10.1 °F 21.2 °F 100% 29.69 in 1.8 mi South 10.4 mph - N/A Snow Light Snow
5:35 AM 21.2 °F 9.5 °F 21.2 °F 100% 29.68 in 1.8 mi South 11.5 mph - 0.01 in Snow Light Snow
5:54 AM 21.2 °F 11.7 °F 21.2 °F 100% 29.67 in 1.5 mi South 8.1 mph - 0.01 in Snow Light Snow
6:15 AM 21.2 °F 11.7 °F 21.2 °F 100% 29.67 in 2.5 mi South 8.1 mph - N/A Snow Light Snow
6:35 AM 21.2 °F 9.5 °F 21.2 °F 100% 29.65 in 2.0 mi SSE 11.5 mph - N/A Snow Light Snow
6:54 AM 21.2 °F 10.1 °F 21.2 °F 100% 29.66 in 2.5 mi SSW 10.4 mph - N/A Snow Snow
7:15 AM 21.2 °F 10.9 °F 21.2 °F 100% 29.67 in 4.0 mi SSW 9.2 mph - N/A   Overcast
7:35 AM 21.2 °F 11.7 °F 21.2 °F 100% 29.64 in 4.0 mi South 8.1 mph - N/A   Overcast
7:54 AM 21.2 °F 12.6 °F 21.2 °F 100% 29.65 in 4.0 mi South 6.9 mph - N/A   Overcast
8:15 AM 21.2 °F 11.7 °F 21.2 °F 100% 29.66 in 4.0 mi SSW 8.1 mph - N/A   Overcast
8:34 AM 21.2 °F 12.6 °F 21.2 °F 100% 29.66 in 4.0 mi SSW 6.9 mph - N/A   Mostly Cloudy
8:55 AM 21.2 °F 11.7 °F 21.2 °F 100% 29.65 in 4.0 mi SSW 8.1 mph - N/A   Clear
9:15 AM 21.2 °F 10.9 °F 21.2 °F 100% 29.65 in 4.0 mi SSW 9.2 mph - N/A   Clear
9:34 AM 19.4 °F 9.5 °F 19.4 °F 100% 29.66 in 5.0 mi SSW 8.1 mph - N/A   Clear
9:55 AM 21.2 °F 13.6 °F 19.4 °F 93% 29.65 in 5.0 mi SSW 5.8 mph - N/A   Clear
10:15 AM 21.2 °F 14.9 °F 21.2 °F 100% 29.65 in 5.0 mi South 4.6 mph - N/A   Clear
10:34 AM 21.2 °F 12.6 °F 21.2 °F 100% 29.66 in 7.0 mi SW 6.9 mph - N/A   Clear
10:55 AM 23.0 °F 15.8 °F 21.2 °F 93% 29.66 in 7.0 mi WSW 5.8 mph - N/A   Clear
11:15 AM 24.8 °F - 23.0 °F 93% 29.66 in 10.0 mi Calm Calm - N/A   Clear
11:34 AM 28.4 °F 20.4 °F 24.8 °F 86% 29.66 in 10.0 mi NW 8.1 mph - N/A   Clear
11:55 AM 28.4 °F 17.5 °F 24.8 °F 86% 29.67 in 7.0 mi NW 13.8 mph - N/A Rain Light Freezing Rain
12:15 PM 30.2 °F 20.8 °F 26.6 °F 86% 29.67 in 10.0 mi NW 11.5 mph - N/A   Clear
12:35 PM 30.2 °F 22.6 °F 26.6 °F 86% 29.66 in 10.0 mi NW 8.1 mph - N/A   Clear
12:55 PM 30.2 °F 21.9 °F 26.6 °F 86% 29.67 in 10.0 mi NW 9.2 mph - N/A   Clear
1:14 PM 32.0 °F 22.1 °F 28.4 °F 87% 29.68 in 10.0 mi WNW 13.8 mph - N/A   Clear
1:35 PM 32.0 °F 22.5 °F 28.4 °F 87% 29.68 in 10.0 mi WNW 12.7 mph - N/A   Clear
1:55 PM 32.0 °F 23.0 °F 28.4 °F 87% 29.67 in 10.0 mi WNW 11.5 mph - N/A   Clear
2:14 PM 32.0 °F 24.8 °F 28.4 °F 87% 29.67 in 10.0 mi WNW 8.1 mph - N/A   Clear
2:35 PM 32.0 °F 24.8 °F 28.4 °F 87% 29.67 in 10.0 mi WNW 8.1 mph - N/A   Clear
2:55 PM 33.8 °F 27.7 °F 28.4 °F 81% 29.67 in 10.0 mi NW 6.9 mph - N/A   Clear
3:14 PM 33.8 °F 27.7 °F 28.4 °F 81% 29.67 in 10.0 mi WNW 6.9 mph - N/A   Clear
3:35 PM 33.8 °F 28.6 °F 28.4 °F 81% 29.68 in 10.0 mi West 5.8 mph - N/A   Clear
3:55 PM 33.8 °F 25.8 °F 28.4 °F 81% 29.68 in 10.0 mi West 10.4 mph - N/A   Clear
4:14 PM 33.8 °F 26.4 °F 28.4 °F 81% 29.68 in 10.0 mi West 9.2 mph - N/A   Clear
4:35 PM 32.0 °F 25.6 °F 28.4 °F 87% 29.68 in 10.0 mi SW 6.9 mph - N/A   Clear
4:55 PM 32.0 °F 28.7 °F 28.4 °F 87% 29.68 in 10.0 mi South 3.5 mph - N/A   Clear
5:15 PM 32.0 °F 26.4 °F 28.4 °F 87% 29.68 in 10.0 mi South 5.8 mph - N/A   Clear
5:35 PM 32.0 °F 27.5 °F 28.4 °F 87% 29.66 in 10.0 mi South 4.6 mph - N/A   Clear
5:54 PM 32.0 °F 25.6 °F 28.4 °F 87% 29.65 in 10.0 mi South 6.9 mph - N/A   Clear
6:15 PM 28.4 °F 19.1 °F 26.6 °F 93% 29.65 in 10.0 mi South 10.4 mph - N/A   Clear
6:35 PM 28.4 °F 19.7 °F 26.6 °F 93% 29.64 in 10.0 mi South 9.2 mph - N/A   Clear
6:54 PM 28.4 °F 19.7 °F 26.6 °F 93% 29.64 in 10.0 mi South 9.2 mph - N/A   Clear
7:15 PM 28.4 °F 18.0 °F 26.6 °F 93% 29.63 in 10.0 mi South 12.7 mph - N/A   Clear
7:35 PM 28.4 °F 18.5 °F 26.6 °F 93% 29.62 in 10.0 mi South 11.5 mph - N/A   Clear
7:54 PM 28.4 °F 18.5 °F 26.6 °F 93% 29.61 in 10.0 mi South 11.5 mph - N/A   Clear
8:15 PM 28.4 °F 19.1 °F 26.6 °F 93% 29.60 in 10.0 mi South 10.4 mph - N/A   Clear
8:35 PM 28.4 °F 19.1 °F 26.6 °F 93% 29.60 in 10.0 mi South 10.4 mph - N/A   Clear
8:54 PM 26.6 °F 17.5 °F 24.8 °F 93% 29.61 in 10.0 mi South 9.2 mph - N/A   Clear
9:15 PM 26.6 °F 16.8 °F 24.8 °F 93% 29.60 in 10.0 mi South 10.4 mph - N/A   Clear
9:35 PM 26.6 °F 15.7 °F 24.8 °F 93% 29.59 in 10.0 mi South 12.7 mph - N/A   Clear
9:55 PM 26.6 °F 16.2 °F 24.8 °F 93% 29.58 in 10.0 mi South 11.5 mph - N/A   Clear
10:15 PM 26.6 °F 15.7 °F 24.8 °F 93% 29.58 in 10.0 mi South 12.7 mph - N/A   Clear
10:34 PM 26.6 °F 16.8 °F 24.8 °F 93% 29.57 in 10.0 mi South 10.4 mph - N/A   Clear
10:55 PM 26.6 °F 17.5 °F 24.8 °F 93% 29.56 in 10.0 mi South 9.2 mph - N/A   Clear
11:15 PM 26.6 °F 17.5 °F 24.8 °F 93% 29.55 in 10.0 mi South 9.2 mph - N/A   Clear
11:34 PM 26.6 °F 18.2 °F 24.8 °F 93% 29.55 in 10.0 mi South 8.1 mph - N/A   Clear
11:55 PM 26.6 °F 17.5 °F 24.8 °F 93% 29.54 in 10.0 mi South 9.2 mph - N/A   Clear